Weather History for Middletown, OH

Change the Weather History Date:

Thursday, July 18, 2013

  Actual Average (KDAY) Record (KDAY)
Temperature  
Mean Temperature 80 °F 74 °F  
Max Temperature 92 °F 84 °F 98 °F (1894)
Min Temperature 68 °F 65 °F 51 °F (1911)
Degree Days  
Heating Degree Days 0 0  
Month to date heating degree days 0  
Since 1 June heating degree days 22  
Since 1 July heating degree days 0  
Cooling Degree Days 15 9  
Month to date cooling degree days 162  
Year to date cooling degree days 422  
Since 1 June cooling degree days 352  
Growing Degree Days 30 (Base 50)    
Moisture  
Dew Point 75 °F    
Average Humidity 84    
Maximum Humidity 100    
Minimum Humidity 55    
Precipitation  
Precipitation 0.00 in 0.12 in 1.47 in (1939)
Month to date precipitation 2.54  
Year to date precipitation 23.75  
Snow  
Snow 0.00 in 0.00 in 0.00 in ()
Month to date snowfall 0.0  
Since 1 June snowfall 0.0  
Since 1 July snowfall 0.0  
Snow Depth -    
Sea Level Pressure  
Sea Level Pressure 30.16 in    
Wind  
Wind Speed 0 mph (West)    
Max Wind Speed 7 mph    
Max Gust Speed -    
Visibility 9 miles    
Events Rain    
T = Trace of Precipitation, MM = Missing Value Source: NWS Daily Summary

Daily Weather History Graph

Daily Weather History Graph

Search for Another Location

Airport:

Trip Planner

Search our weather history database for the weather conditions in past years. The results will help you decide how hot, cold, wet, or windy it might be!

Date:

Astronomy

Jul. 18, 2013 Rise Set
Actual Time 6:25 AM EDT 9:02 PM EDT
Civil Twilight 5:53 AM EDT 9:33 PM EDT
Nautical Twilight 5:14 AM EDT 10:12 PM EDT
Astronomical Twilight 4:31 AM EDT 10:55 PM EDT
Moon 4:58 PM EDT (7/18) 2:14 AM EDT (7/18)
Length of Visible Light 15h 39m
Length of Day
14h 36m
Waxing Gibbous, 77% of the Moon is Illuminated
Jul 18
Waxing Gibbous
Jul 22
Full
Jul 29
Last Quarter
Aug 6
New
Aug 14
First Quarter

Hourly Weather History & Observations

Time (EDT) Temp. Heat Index Dew Point Humidity Pressure Visibility Wind Dir Wind Speed Gust Speed Precip Events Conditions
12:15 AM 75.2 °F - 75.2 °F 100% 30.23 in 10.0 mi Calm Calm - N/A   Scattered Clouds
12:35 AM 75.2 °F - 75.2 °F 100% 30.23 in 10.0 mi Calm Calm - N/A   Clear
12:55 AM 75.2 °F - 75.2 °F 100% 30.23 in 10.0 mi Calm Calm - N/A   Clear
1:15 AM 73.8 °F - 73.8 °F 100% 30.23 in 10.0 mi Calm Calm - N/A   Clear
1:35 AM 72.7 °F - 72.7 °F 100% 30.23 in 10.0 mi Calm Calm - N/A   Clear
1:55 AM 72.7 °F - 72.7 °F 100% 30.23 in 10.0 mi Calm Calm - N/A   Clear
2:15 AM 72.7 °F - 72.7 °F 100% 30.23 in 10.0 mi Calm Calm - N/A   Clear
2:35 AM 72.7 °F - 72.7 °F 100% 30.22 in 7.0 mi Calm Calm - N/A   Clear
2:55 AM 72.7 °F - 72.7 °F 100% 30.22 in 7.0 mi Calm Calm - N/A   Clear
3:15 AM 72.7 °F - 72.7 °F 100% 30.21 in 10.0 mi Calm Calm - N/A   Clear
3:35 AM 72.7 °F - 72.7 °F 100% 30.20 in 7.0 mi Calm Calm - N/A   Clear
3:55 AM 72.7 °F - 72.7 °F 100% 30.21 in 10.0 mi Calm Calm - N/A   Clear
4:15 AM 72.7 °F - 72.7 °F 100% 30.20 in 10.0 mi Calm Calm - N/A   Clear
4:35 AM 72.7 °F - 72.7 °F 100% 30.20 in 7.0 mi Calm Calm - N/A   Clear
4:55 AM 72.7 °F - 72.7 °F 100% 30.20 in 7.0 mi Calm Calm - N/A   Clear
5:15 AM 72.7 °F - 72.7 °F 100% 30.20 in 5.0 mi Calm Calm - N/A   Clear
5:35 AM 72.7 °F - 72.7 °F 100% 30.19 in 7.0 mi Calm Calm - N/A   Clear
5:55 AM 72.7 °F - 72.7 °F 100% 30.20 in 7.0 mi Calm Calm - N/A   Clear
6:15 AM 69.6 °F - 69.6 °F 100% 30.19 in 7.0 mi Calm Calm - N/A   Clear
6:35 AM 70.2 °F - 70.2 °F 100% 30.20 in 5.0 mi Calm Calm - N/A   Clear
6:55 AM 68.9 °F - 68.9 °F 100% 30.20 in 5.0 mi Calm Calm - N/A   Clear
7:15 AM 72.7 °F - 72.7 °F 100% 30.21 in 5.0 mi Calm Calm - N/A   Clear
7:35 AM 72.7 °F - 72.7 °F 100% 30.21 in 7.0 mi Calm Calm - N/A   Clear
7:55 AM 72.7 °F - 72.7 °F 100% 30.22 in 7.0 mi Calm Calm - N/A   Clear
8:15 AM 75.2 °F - 75.2 °F 100% 30.22 in 5.0 mi Calm Calm - N/A   Clear
8:35 AM 77.9 °F - 75.6 °F 92% 30.22 in 7.0 mi Calm Calm - N/A Rain Light Rain
8:55 AM 77.9 °F - 74.8 °F 90% 30.22 in 10.0 mi Calm Calm - N/A Rain Light Rain
9:15 AM 79.0 °F - 74.8 °F 87% 30.22 in 10.0 mi Calm Calm - N/A Rain Light Rain
9:35 AM 80.2 °F 85.5 °F 75.4 °F 85% 30.22 in 10.0 mi Calm Calm - N/A   Clear
9:55 AM 80.6 °F 86.2 °F 75.2 °F 84% 30.21 in 10.0 mi Calm Calm - N/A   Light Drizzle
10:15 AM 81.9 °F 89.5 °F 76.5 °F 84% 30.21 in 10.0 mi Calm Calm - N/A   Clear
10:35 AM 85.5 °F 97.7 °F 78.3 °F 79% 30.21 in 10.0 mi North 3.5 mph - N/A   Clear
10:55 AM 87.8 °F 102.5 °F 79.2 °F 75% 30.20 in 10.0 mi Calm Calm - N/A   Clear
11:15 AM 87.8 °F 100.8 °F 77.7 °F 72% 30.20 in 10.0 mi Calm Calm - N/A   Clear
11:35 AM 87.8 °F 100.8 °F 77.9 °F 72% 30.20 in 10.0 mi Calm Calm - N/A   Scattered Clouds
11:55 AM 87.8 °F 98.1 °F 75.7 °F 67% 30.19 in 10.0 mi Calm Calm - N/A   Scattered Clouds
12:15 PM 87.8 °F 96.6 °F 74.5 °F 64% 30.19 in 10.0 mi Calm Calm - N/A   Clear
12:35 PM 87.8 °F 96.6 °F 74.3 °F 64% 30.18 in 10.0 mi Calm Calm - N/A   Clear
12:55 PM 87.8 °F 96.1 °F 73.8 °F 63% 30.18 in 10.0 mi Calm Calm - N/A   Clear
1:15 PM 87.8 °F 97.6 °F 75.2 °F 66% 30.18 in 10.0 mi WSW 6.9 mph - N/A   Scattered Clouds
1:35 PM 87.8 °F 96.1 °F 73.8 °F 63% 30.17 in 10.0 mi Calm Calm - N/A   Scattered Clouds
1:55 PM 88.5 °F 95.3 °F 72.1 °F 58% 30.17 in 10.0 mi WSW 3.5 mph - N/A   Clear
2:15 PM 88.5 °F 96.8 °F 73.8 °F 61% 30.16 in 10.0 mi Calm Calm - N/A   Clear
2:35 PM 89.2 °F 97.9 °F 73.8 °F 60% 30.15 in 10.0 mi Calm Calm - N/A   Clear
2:55 PM 92.8 °F 105.5 °F 75.9 °F 58% 30.15 in 10.0 mi Calm Calm - N/A   Clear
3:15 PM 92.8 °F 106.9 °F 77.2 °F 60% 30.14 in 10.0 mi WSW 5.8 mph - N/A   Clear
3:35 PM 92.8 °F 104.1 °F 75.0 °F 56% 30.13 in 10.0 mi Calm Calm - N/A   Clear
3:55 PM 92.8 °F 104.8 °F 75.4 °F 57% 30.12 in 10.0 mi Calm Calm - N/A   Clear
4:15 PM 92.8 °F 106.9 °F 77.0 °F 60% 30.11 in 10.0 mi NW 5.8 mph - N/A   Clear
4:35 PM 92.8 °F 105.5 °F 76.3 °F 58% 30.11 in 10.0 mi West 4.6 mph - N/A   Clear
4:55 PM 92.8 °F 103.4 °F 74.3 °F 55% 30.10 in 10.0 mi Calm Calm - N/A   Clear
5:15 PM 91.9 °F 103.2 °F 75.4 °F 58% 30.09 in 10.0 mi West 3.5 mph - N/A   Clear
6:15 PM 90.5 °F 100.3 °F 74.3 °F 59% 30.08 in 10.0 mi Calm Calm - N/A   Clear
6:35 PM 90.0 °F 99.6 °F 74.5 °F 60% 30.07 in 10.0 mi Calm Calm - N/A   Clear
6:55 PM 88.0 °F 97.0 °F 74.3 °F 64% 30.06 in 10.0 mi Calm Calm - N/A   Clear
7:15 PM 87.8 °F 97.6 °F 75.0 °F 66% 30.06 in 10.0 mi Calm Calm - N/A   Clear
7:35 PM 87.8 °F 97.6 °F 75.0 °F 66% 30.05 in 10.0 mi Calm Calm - N/A   Clear
7:55 PM 87.8 °F 100.2 °F 77.5 °F 71% 30.05 in 10.0 mi Calm Calm - N/A   Clear
8:15 PM 87.8 °F 104.3 °F 80.1 °F 78% 30.05 in 10.0 mi Calm Calm - N/A   Clear
8:35 PM 81.0 °F 88.6 °F 78.1 °F 91% 30.05 in 10.0 mi Calm Calm - N/A   Clear
8:55 PM 79.0 °F - 76.5 °F 92% 30.06 in 10.0 mi Calm Calm - N/A   Clear
9:15 PM 78.8 °F - 77.2 °F 95% 30.07 in 10.0 mi Calm Calm - N/A   Clear
9:35 PM 77.9 °F - 77.5 °F 99% 30.08 in 10.0 mi Calm Calm - N/A   Clear
9:55 PM 77.9 °F - 77.4 °F 98% 30.08 in 10.0 mi Calm Calm - N/A   Clear
10:15 PM 75.2 °F - 75.2 °F 100% 30.08 in 10.0 mi Calm Calm - N/A   Clear
10:35 PM 75.2 °F - 75.2 °F 100% 30.08 in 10.0 mi Calm Calm - N/A   Clear
10:55 PM 75.2 °F - 75.2 °F 100% 30.08 in 10.0 mi Calm Calm - N/A   Clear
11:15 PM 75.2 °F - 75.2 °F 100% 30.07 in 10.0 mi Calm Calm - N/A   Clear
11:35 PM 75.2 °F - 75.2 °F 100% 30.08 in 10.0 mi Calm Calm - N/A   Clear
11:55 PM 75.2 °F - 75.2 °F 100% 30.07 in 7.0 mi Calm Calm - N/A   Clear